Sierra Vista, AZ

11:25 AM MST on May 26, 2017 (GMT -0700)
Sierra Vista Municipal-Libby Army Air Field

Weather History for KFHU - April, 2013

Change the Weather History Date:

Friday, April 19, 2013

  Actual Average Record
Temperature  
Mean Temperature 56 °F -  
Max Temperature 71 °F 74 °F 95 °F (1989)
Min Temperature 42 °F 52 °F 37 °F (1985)
Degree Days  
Heating Degree Days 8    
Growing Degree Days 6 (Base 50)    
Moisture  
Dew Point -3 °F    
Average Humidity 10    
Maximum Humidity 19    
Minimum Humidity 4    
Precipitation  
Precipitation 0.00 in - - ()
Sea Level Pressure  
Sea Level Pressure 30.05 in    
Wind  
Wind Speed 4 mph (SE)    
Max Wind Speed 14 mph    
Max Gust Speed 20 mph    
Visibility 10 miles    
Events      
Averages and records for this station are not official NWS values.
T = Trace of Precipitation, MM = Missing Value Source: NWS Daily Summary

Daily Weather History Graph

Daily Weather History Graph

Search for Another Location

Airport or City:

Trip Planner

Search our weather history database for the weather conditions in past years. The results will help you decide how hot, cold, wet, or windy it might be!

Date:

Astronomy

Apr. 19, 2013 Rise Set
Actual Time 5:48 AM MST 6:53 PM MST
Civil Twilight 5:22 AM MST 7:18 PM MST
Nautical Twilight 4:53 AM MST 7:48 PM MST
Astronomical Twilight 4:22 AM MST 8:19 PM MST
Moon 1:03 PM MST (4/19) 1:42 AM MST (4/19)
Length of Visible Light 13h 55m
Length of Day
13h 05m
Waxing Gibbous, 62% of the Moon is Illuminated
Apr 19
Waxing Gibbous
Apr 25
Full
May 2
Last Quarter
May 9
New
May 17
First Quarter

Hourly Weather History & Observations

Time (MST) Temp. Windchill Dew Point Humidity Pressure Visibility Wind Dir Wind Speed Gust Speed Precip Events Conditions
12:55 AM 50.0 °F - 3.2 °F 15% 30.11 in 10.0 mi Calm Calm - N/A   Clear
1:55 AM 48.2 °F - 3.2 °F 16% 30.10 in 10.0 mi Calm Calm - N/A   Clear
2:55 AM 46.4 °F - 3.2 °F 17% 30.10 in 10.0 mi Calm Calm - N/A   Clear
3:55 AM 46.4 °F - 1.4 °F 16% 30.09 in 10.0 mi Calm Calm - N/A   Clear
4:55 AM 42.8 °F - 3.2 °F 19% 30.11 in 10.0 mi Calm Calm - N/A   Clear
5:55 AM 42.8 °F 41.1 °F 1.4 °F 18% 30.14 in 10.0 mi ENE 3.5 mph - N/A   Clear
6:55 AM 44.6 °F 43.1 °F 3.2 °F 18% 30.16 in 10.0 mi ESE 3.5 mph - N/A   Clear
7:55 AM 51.8 °F - 1.4 °F 13% 30.15 in 10.0 mi East 12.7 mph - N/A   Clear
8:55 AM 55.4 °F - -0.4 °F 10% 30.14 in 10.0 mi East 12.7 mph 19.6 mph N/A   Clear
9:55 AM 59.0 °F - -2.2 °F 8% 30.15 in 10.0 mi ESE 13.8 mph - N/A   Clear
10:55 AM 62.6 °F - -2.2 °F 7% 30.14 in 10.0 mi East 5.8 mph - N/A   Clear
11:55 AM 62.6 °F - -5.8 °F 6% 30.11 in 10.0 mi ESE 6.9 mph - N/A   Clear
12:55 PM 66.2 °F - -7.6 °F 5% 30.06 in 10.0 mi East 10.4 mph - N/A   Clear
1:55 PM 69.8 °F - -5.8 °F 5% 30.04 in 10.0 mi East 6.9 mph - N/A   Clear
2:55 PM 69.8 °F - -9.4 °F 4% 30.01 in 10.0 mi Variable 2.3 mph - N/A   Clear
3:55 PM 71.6 °F - -9.4 °F 4% 29.98 in 10.0 mi Calm Calm - N/A   Clear
4:55 PM 71.6 °F - -9.4 °F 4% 29.96 in 10.0 mi Calm Calm - N/A   Clear
5:55 PM 71.6 °F - -9.4 °F 4% 29.94 in 10.0 mi SSW 3.5 mph - N/A   Partly Cloudy
6:55 PM 69.8 °F - -7.6 °F 4% 29.95 in 10.0 mi Calm Calm - N/A   Partly Cloudy
7:55 PM 60.8 °F - -2.2 °F 8% 29.97 in 10.0 mi West 6.9 mph - N/A   Partly Cloudy
8:55 PM 59.0 °F - -7.6 °F 6% 29.98 in 10.0 mi WSW 11.5 mph - N/A   Partly Cloudy
9:55 PM 57.2 °F - -7.6 °F 7% 29.96 in 10.0 mi SW 6.9 mph - N/A   Clear
10:55 PM 55.4 °F - -9.4 °F 7% 29.95 in 10.0 mi WSW 12.7 mph - N/A   Clear
11:56 PM 55.0 °F - -7.1 °F 8% 29.95 in 10.0 mi WSW 11.5 mph - N/A   Clear